Vorticity
7 15 9 8 5 12 11 6 10 14 14 10 20 16 -17 25 31 8 -3 6 14 17 11 20 1 6 12 35 38 19 4 8 4 8 -4 3 21 15 18 -7 6 18 12 11
15 12 11 29 8 2 16 8 -0 1 20 16 2 -0 7 -6 3 2 16 1 20 19 8 2 13 3 24 3 -3 15 22 27 14 31 20 16 8 10 4 -1 8 -0 6 7
10 7 12 4 1 11 26 -5 45 7 9 7 5 18 -14 3 21 8 5 9 5 13 8 10 -3 12 1 21 5 8 12 3 2 -25 1 23 22 1 2 0 5 0 9 6
12 12 18 26 14 9 2 24 20 27 28 1 9 6 24 1 -7 14 17 18 10 9 5 15 10 12 20 31 10 25 -10 5 13 6 5 8 12 12 14 7 7 7 9 1
11 10 21 9 16 13 7 8 -48 23 -4 31 39 -2 29 21 11 3 1 -2 15 3 6 5 33 23 2 -8 31 9 2 6 13 13 -0 0 8 7 6 8 5 5 6 8
20 24 29 47 7 12 18 -4 12 1 25 9 24 2 -0 15 18 6 19 16 8 13 15 -4 20 12 5 20 30 -0 4 -5 14 11 25 8 26 31 23 21 18 38 31 15
19 9 28 29 1 6 7 18 6 -4 -14 24 7 12 14 1 14 7 14 17 10 18 16 5 11 13 10 19 14 12 9 11 5 19 4 9 20 6 3 -2 11 2 -4 -12
0 26 5 52 2 4 15 21 10 15 16 6 22 16 17 2 25 6 13 20 -12 5 14 14 -5 5 6 10 6 9 11 8 11 2 14 5 11 13 21 8 1 8 6 3
12 4 63 7 8 9 22 8 -13 18 8 36 11 21 19 9 22 5 5 4 7 12 4 -4 10 10 16 17 11 12 13 5 0 25 8 21 14 -10 4 -4 19 12 23 16
11 18 25 -2 -2 12 35 -3 17 19 10 41 7 18 5 16 1 3 11 12 11 3 10 7 9 15 23 12 4 13 8 8 5 4 5 14 17 1 9 16 -4 7 -3 11
13 25 6 2 -0 20 29 5 3 -5 11 40 6 30 13 23 6 -0 21 2 16 10 -5 6 7 12 6 20 12 22 12 -4 18 21 15 -2 8 12 14 1 -0 9 22 19
12 6 3 -14 14 35 4 17 -5 -10 13 19 -6 2 8 1 8 34 3 -9 31 28 1 2 20 8 14 12 6 4 7 -5 13 6 12 7 1 10 15 16 24 21 19 16
2 9 2 19 26 20 4 1 24 -13 7 26 1 9 9 9 4 -10 7 11 5 22 -2 2 10 2 30 3 16 15 8 15 -7 -0 11 3 8 17 14 15 13 13 15 18
11 18 21 20 26 11 -28 31 8 8 3 11 23 9 5 9 19 20 19 5 29 24 0 8 4 1 8 8 26 17 5 12 23 12 11 6 16 12 12 13 12 11 10 9
21 20 19 23 7 7 14 25 9 -1 -9 26 5 5 18 20 21 19 12 21 27 24 6 21 5 21 -2 16 -0 14 9 2 7 9 10 9 12 13 13 11 10 8 7 8
15 18 17 5 15 4 -2 40 4 -9 19 24 -5 19 15 14 13 16 15 1 7 9 13 11 11 6 10 -3 7 8 10 12 11 -1 12 13 11 11 10 10 8 7 8 8
14 8 18 29 16 -11 30 -7 -0 -4 -4 -6 15 12 11 4 4 4 8 8 2 10 11 10 14 20 0 16 9 25 7 11 15 18 13 9 10 12 8 9 10 7 8 9
7 12 19 18 -5 8 15 19 2 5 13 4 13 22 4 7 7 12 7 17 12 4 11 16 8 9 4 7 8 12 11 9 12 17 14 7 13 11 9 8 8 9 10 10
6 5 7 4 4 12 5 19 5 3 8 6 22 20 24 4 5 15 7 4 12 15 8 10 9 8 11 8 11 12 11 10 16 14 14 10 10 10 8 7 11 11 11 9
12 2 7 11 6 2 12 14 5 6 6 6 22 7 15 7 10 6 6 10 10 8 10 8 19 10 1 14 14 23 9 8 9 14 13 11 9 6 7 7 11 12 10 9
-3 8 4 25 5 17 -13 13 3 16 11 19 8 24 11 22 5 8 1 13 13 10 16 5 13 17 13 18 14 18 15 9 9 13 12 14 8 6 8 9 11 11 11 9
10 16 31 5 0 -3 13 21 7 12 12 27 11 13 13 11 1 5 14 9 15 9 17 5 14 7 9 10 25 16 20 10 7 12 15 13 9 8 7 9 10 12 10 11
29 2 -22 -9 1 15 8 14 16 11 28 9 6 0 1 13 6 13 10 12 5 12 12 11 7 13 21 24 21 16 17 8 7 9 12 13 11 8 7 10 11 11 11 12
8 -11 10 4 13 16 17 10 14 6 29 3 14 2 7 7 5 13 11 12 9 10 11 19 11 17 17 13 13 9 9 7 6 15 14 12 12 9 8 11 12 10 12 7
-4 7 8 12 17 22 14 13 13 16 16 16 13 1 12 6 7 10 9 14 11 10 10 5 11 15 16 16 23 13 7 8 7 11 10 14 11 9 10 14 12 13 9 6
-4 12 26 14 20 18 20 20 20 13 15 7 6 4 14 13 9 12 11 9 12 13 9 14 13 12 17 17 18 17 12 10 11 13 14 16 12 9 12 13 13 10 7 6
10 18 11 9 16 7 16 15 20 6 4 5 6 8 14 14 10 7 13 7 9 11 15 17 17 14 11 22 18 15 14 19 23 20 16 13 11 12 11 13 10 7 7 7
Height
2927 2932 2936 2941 2944 2950 2953 2956 2959 2961 2964 2966 2965 2965 2972 2975 2977 2980 2983 2984 2986 2988 2990 2989 2988 2990 2986 2988 2991 2994 3000 3001 3002 3003 3003 3001 3003 3005 3005 3004 3002 3000 3001 2999
2919 2923 2928 2931 2934 2941 2948 2950 2950 2953 2955 2954 2957 2962 2966 2969 2972 2975 2977 2979 2981 2984 2985 2987 2983 2985 2984 2987 2989 2994 2996 2997 3000 3000 3000 2998 2998 3000 3003 3003 3003 3002 3002 3001
2909 2913 2917 2922 2927 2934 2941 2945 2942 2946 2945 2948 2950 2956 2961 2963 2965 2969 2973 2975 2976 2977 2979 2982 2980 2981 2981 2983 2987 2988 2990 2994 2995 2995 2994 2994 2994 2997 2999 2999 3000 3000 3001 3002
2898 2901 2907 2914 2919 2926 2934 2936 2937 2936 2937 2941 2946 2954 2955 2959 2961 2964 2968 2969 2971 2972 2975 2977 2976 2978 2977 2980 2981 2984 2987 2989 2993 2994 2994 2993 2992 2994 2995 2996 2997 2998 3000 3001
2889 2894 2899 2906 2912 2919 2925 2929 2930 2933 2937 2939 2943 2947 2948 2953 2956 2960 2963 2964 2967 2969 2970 2973 2975 2974 2976 2976 2978 2980 2982 2987 2989 2991 2992 2992 2992 2992 2992 2993 2994 2995 2997 3000
2881 2888 2896 2899 2907 2914 2917 2923 2928 2927 2931 2933 2936 2939 2943 2948 2952 2956 2958 2960 2962 2964 2965 2968 2971 2972 2973 2975 2974 2977 2983 2986 2989 2988 2989 2989 2990 2989 2990 2991 2993 2992 2994 2993
2876 2883 2889 2894 2903 2910 2918 2922 2925 2927 2928 2931 2931 2937 2941 2945 2947 2949 2953 2954 2957 2960 2961 2966 2969 2971 2972 2973 2976 2980 2981 2984 2986 2986 2987 2987 2986 2985 2986 2987 2987 2989 2989 2988
2871 2876 2883 2889 2899 2907 2911 2916 2921 2923 2924 2927 2929 2932 2936 2941 2942 2945 2949 2949 2954 2958 2962 2966 2967 2971 2972 2973 2975 2977 2980 2982 2983 2984 2984 2985 2985 2983 2984 2985 2986 2986 2986 2986
2865 2873 2877 2888 2897 2901 2907 2911 2916 2920 2922 2923 2925 2928 2931 2934 2936 2943 2942 2948 2953 2958 2962 2964 2965 2966 2968 2971 2973 2975 2977 2979 2982 2981 2980 2977 2982 2982 2981 2982 2983 2979 2980 2980
2862 2870 2878 2886 2892 2897 2902 2909 2914 2918 2918 2918 2921 2924 2927 2932 2936 2940 2942 2947 2952 2955 2959 2961 2962 2962 2963 2965 2968 2972 2974 2976 2977 2977 2977 2977 2977 2978 2979 2982 2982 2977 2975 2974
2860 2868 2877 2884 2889 2893 2898 2907 2911 2915 2915 2916 2919 2922 2926 2930 2934 2936 2941 2947 2950 2954 2957 2959 2959 2959 2961 2963 2965 2968 2972 2973 2974 2974 2974 2975 2974 2976 2979 2976 2974 2973 2971 2970
2860 2868 2874 2881 2887 2891 2898 2905 2909 2913 2915 2917 2920 2923 2926 2930 2931 2934 2940 2945 2946 2950 2954 2957 2957 2958 2959 2962 2965 2966 2970 2969 2969 2972 2971 2972 2973 2973 2973 2973 2972 2971 2970 2969
2861 2868 2874 2880 2884 2891 2899 2904 2908 2913 2915 2918 2921 2924 2928 2932 2934 2937 2941 2944 2945 2947 2950 2953 2955 2957 2958 2960 2962 2964 2965 2966 2968 2971 2970 2971 2971 2972 2972 2972 2971 2971 2971 2971
2861 2867 2872 2879 2884 2892 2900 2903 2908 2914 2917 2918 2922 2925 2929 2931 2933 2936 2939 2941 2943 2947 2950 2952 2954 2956 2957 2958 2959 2963 2965 2965 2965 2966 2968 2970 2970 2971 2971 2972 2972 2973 2973 2973
2862 2868 2874 2880 2887 2894 2900 2903 2908 2912 2918 2919 2923 2927 2929 2931 2933 2936 2939 2941 2944 2948 2950 2952 2953 2953 2956 2958 2960 2962 2963 2963 2965 2966 2967 2968 2969 2970 2971 2972 2973 2974 2975 2975
2866 2872 2876 2882 2889 2895 2899 2904 2910 2913 2914 2921 2925 2928 2930 2932 2935 2937 2940 2942 2945 2949 2950 2951 2951 2953 2956 2958 2959 2960 2960 2961 2963 2964 2966 2967 2969 2970 2971 2973 2974 2975 2976 2977
2869 2873 2878 2884 2891 2897 2903 2909 2911 2914 2920 2922 2925 2929 2931 2933 2936 2939 2942 2944 2945 2949 2950 2952 2953 2954 2955 2957 2958 2959 2959 2961 2961 2963 2965 2966 2968 2970 2972 2973 2974 2976 2977 2977
2873 2878 2882 2888 2894 2900 2905 2908 2913 2918 2921 2924 2927 2930 2933 2936 2938 2940 2942 2944 2946 2947 2950 2951 2954 2954 2955 2956 2956 2956 2958 2959 2960 2961 2962 2965 2968 2970 2972 2973 2975 2976 2977 2977
2875 2881 2886 2891 2897 2902 2906 2912 2917 2920 2925 2925 2926 2928 2932 2935 2937 2940 2943 2945 2946 2948 2950 2952 2953 2952 2953 2952 2953 2954 2956 2958 2959 2960 2962 2964 2966 2970 2971 2973 2975 2976 2977 2978
2880 2886 2891 2895 2900 2905 2910 2916 2919 2922 2924 2926 2927 2929 2931 2935 2937 2939 2943 2944 2947 2947 2949 2948 2949 2950 2949 2949 2951 2952 2954 2956 2958 2959 2961 2963 2965 2968 2970 2972 2974 2976 2977 2977
2883 2887 2892 2898 2904 2909 2913 2916 2920 2923 2925 2926 2928 2929 2930 2935 2938 2940 2943 2944 2945 2947 2947 2948 2947 2947 2946 2947 2947 2949 2951 2954 2956 2958 2960 2962 2964 2967 2969 2971 2973 2974 2976 2977
2888 2892 2897 2902 2908 2912 2914 2917 2920 2922 2924 2924 2927 2930 2932 2935 2938 2939 2942 2944 2944 2945 2945 2946 2945 2943 2943 2943 2944 2946 2949 2952 2954 2957 2959 2961 2963 2966 2968 2970 2972 2973 2975 2976
2893 2897 2902 2906 2909 2911 2913 2914 2917 2918 2919 2924 2926 2929 2932 2935 2937 2938 2940 2941 2943 2943 2943 2943 2941 2940 2940 2941 2943 2946 2948 2951 2954 2956 2958 2961 2963 2965 2967 2969 2970 2972 2973 2975
2896 2900 2903 2905 2907 2909 2910 2912 2914 2917 2920 2923 2925 2928 2931 2934 2936 2937 2939 2941 2941 2941 2941 2939 2939 2939 2939 2940 2942 2945 2948 2951 2953 2955 2958 2960 2962 2964 2966 2968 2969 2970 2972 2974
2897 2901 2903 2904 2905 2907 2909 2912 2915 2917 2920 2924 2927 2931 2933 2934 2936 2936 2938 2939 2939 2939 2938 2938 2939 2939 2939 2940 2942 2944 2947 2949 2951 2954 2956 2958 2960 2963 2964 2966 2968 2970 2972 2973
2899 2901 2903 2905 2907 2908 2910 2912 2915 2919 2923 2927 2930 2931 2933 2934 2935 2936 2937 2939 2938 2938 2938 2938 2938 2938 2939 2940 2941 2943 2946 2948 2950 2952 2954 2956 2959 2961 2962 2964 2966 2968 2970 2972
2901 2904 2905 2907 2908 2910 2912 2915 2919 2923 2926 2928 2930 2931 2933 2934 2936 2937 2936 2937 2938 2938 2938 2938 2938 2938 2939 2940 2941 2943 2945 2947 2949 2951 2953 2955 2957 2959 2961 2963 2965 2967 2969 2971